SCP
0 0 0 0 0 0 0 0 -0 -0 0 0 0 0 0 0 0 0 0 0 0 0 0 0 0 0 0 0 0 0 0 0 0 0 0 0 0 0 0 0 0 0 0 0 0 0 0 0 0
0 0 0 0 0 0 0 0 -0 -0 0 0 0 0 0 0 0 0 0 0 0 0 0 0 0 0 0 0 0 0 0 0 0 0 0 0 0 0 0 0 0 0 0 0 0 0 0 1 1
0 0 0 0 0 0 0 0 0 -0 0 0 0 0 0 0 0 0 0 0 0 0 0 0 0 0 0 0 0 0 0 0 0 0 0 0 0 0 0 0 0 0 0 0 0 0 0 0 0
0 0 0 0 0 0 0 0 0 0 0 0 0 0 0 0 0 0 -0 0 0 0 0 0 0 0 0 0 0 0 0 0 0 0 0 0 0 0 0 0 0 0 0 0 0 0 0 0 0
0 0 0 0 0 0 0 0 0 0 0 0 0 0 0 0 0 0 -0 0 0 0 0 0 0 0 0 0 0 0 0 0 0 0 0 0 0 0 0 0 0 0 0 0 0 0 0 1 0
0 0 0 0 0 0 0 0 0 0 0 0 0 0 0 0 0 0 0 0 0 0 0 0 0 0 0 0 0 0 0 0 0 0 0 0 0 0 0 0 0 0 0 0 0 0 0 0 0
0 0 0 0 0 0 0 0 0 0 0 0 0 0 0 0 0 0 0 0 0 0 0 0 0 0 0 0 0 0 0 0 0 0 0 0 0 0 0 0 0 0 0 0 0 0 0 0 0
0 0 0 0 0 0 0 0 0 0 0 0 0 0 0 0 0 0 0 0 0 0 0 0 0 0 0 0 0 0 0 0 0 0 0 0 0 0 0 0 0 0 0 0 0 0 0 0 0
0 0 0 0 0 0 0 0 0 0 0 0 0 0 0 0 0 0 0 0 0 0 0 0 0 0 0 0 0 0 0 0 0 0 0 0 0 0 0 0 0 0 0 0 0 0 0 0 0
0 0 0 0 0 0 0 0 0 0 0 0 0 0 0 0 0 0 0 0 0 0 0 0 0 0 0 0 0 0 0 0 0 0 0 0 0 0 0 0 0 0 0 0 0 0 0 0 0
0 0 0 0 0 0 0 0 0 0 0 0 0 0 0 0 0 0 0 0 0 0 0 0 0 0 0 0 0 0 0 0 0 0 0 0 0 0 0 0 0 0 0 0 0 0 0 0 0
0 0 0 0 0 0 0 0 0 0 0 0 0 0 0 0 0 0 0 0 0 0 0 0 0 0 0 0 0 0 0 0 0 0 0 0 0 0 0 0 0 0 0 0 0 0 0 0 0
0 0 0 0 0 0 0 0 0 0 0 0 0 0 0 0 0 0 0 0 0 0 0 0 0 0 0 0 0 0 0 0 0 0 0 0 0 0 0 0 0 0 0 0 0 0 0 0 0
0 0 0 0 0 0 0 0 0 0 0 0 0 0 0 0 0 0 0 0 0 0 0 0 0 0 0 0 0 0 0 0 0 0 0 0 0 0 0 0 0 0 0 0 0 0 -0 0 0
0 0 0 0 0 0 0 0 0 0 0 0 0 0 0 0 0 -0 0 0 0 0 0 0 0 0 0 0 0 0 0 0 0 0 0 0 0 0 0 0 0 0 0 -0 0 -0 -0 0 0
0 0 0 0 0 0 0 0 0 0 0 0 0 0 0 0 0 0 0 0 0 0 0 0 0 0 0 0 0 0 0 0 0 0 0 0 0 0 0 0 0 -0 -0 -0 -0 -0 -0 0 0
0 0 0 0 0 0 0 0 0 0 0 0 0 0 0 0 0 0 0 0 0 0 0 0 0 0 0 0 0 0 0 0 0 0 0 0 0 0 0 0 -0 -0 -0 -0 -0 0 -0 0 0
0 0 0 0 0 0 0 0 0 0 0 0 0 0 0 0 0 0 0 0 0 0 0 0 0 0 0 0 0 0 0 0 0 0 0 0 0 0 0 -0 -0 -0 0 0 0 0 0 0 0
0 0 0 0 0 0 0 0 0 0 0 0 0 0 0 0 0 0 0 0 0 0 0 0 0 0 0 0 0 0 0 0 0 0 0 0 0 0 -0 -0 -0 -0 0 0 0 0 0 0 0
0 0 0 0 0 0 0 0 0 0 0 0 0 0 0 0 0 0 0 0 0 0 0 0 0 0 0 0 0 0 0 0 0 0 0 0 0 0 -0 -0 -0 -0 0 0 0 0 0 0 0
0 0 0 0 0 -0 -0 -0 0 0 0 0 0 0 0 0 0 0 0 0 0 0 0 0 0 0 0 0 0 0 0 0 0 0 0 0 0 -0 -0 -0 -0 0 0 0 0 -0 0 0 0
0 0 0 0 0 -0 0 -0 -0 0 0 0 0 0 0 0 0 0 0 0 0 0 0 0 0 0 0 0 0 0 0 0 0 -0 0 0 0 -0 -0 -0 -0 0 0 0 0 0 0 0 0
0 0 0 0 0 0 0 0 -0 0 0 0 0 0 0 0 0 0 0 0 0 0 0 0 0 0 0 0 0 0 0 0 -0 -0 0 -0 -0 -0 -0 -0 -0 -0 -0 0 -0 -0 0 0 0
0 0 0 0 0 0 0 0 -0 -0 0 0 0 0 0 0 0 0 0 0 0 0 0 0 0 0 0 0 0 0 0 0 0 0 0 0 -0 -0 -0 -0 -0 -0 0 -0 -0 -0 -0 0 0
0 0 0 0 0 0 0 0 0 0 0 0 0 0 0 0 0 0 0 0 0 0 0 0 0 0 0 0 0 0 0 0 0 0 0 0 0 0 0 0 0 0 0 -0 -0 -0 0 -0 0
0 0 0 0 0 0 0 0 0 0 0 0 0 0 0 0 0 0 0 0 0 0 0 0 0 0 0 0 0 0 0 0 0 0 0 0 0 0 0 0 0 0 0 -0 -0 -0 0 -0 -0
0 0 0 0 0 0 0 0 0 0 0 0 0 0 0 0 0 0 0 0 0 0 0 0 0 0 0 0 0 0 0 0 0 0 0 0 0 0 0 0 0 -0 -0 -0 -0 -0 -0 0 -0
0 0 0 0 0 0 0 0 0 0 0 0 0 0 0 0 0 0 0 0 0 0 0 0 0 0 0 0 0 0 0 0 0 0 0 0 0 0 0 0 0 -0 -0 -0 0 0 0 -0 -0
0 0 0 0 0 0 0 0 0 0 0 0 0 0 0 0 0 0 0 0 0 0 0 0 0 0 0 0 0 0 0 0 0 0 0 0 0 0 0 0 0 -0 -0 -0 0 0 0 0 -0
0 0 0 0 0 0 0 0 0 0 0 0 0 0 0 0 0 0 0 0 0 0 0 0 0 0 0 0 0 0 -0 0 0 0 0 0 0 0 0 0 0 0 0 0 -0 0 0 0 0
Wind_Speed_500mb
13 12 8 3 7 9 7 11 5 4 3 5 4 7 8 5 9 8 12 27 23 33 27 24 24 28 28 25 22 22 21 22 24 26 28 30 32 33 36 37 36 35 37 37 36 36 36 36 38
15 13 9 5 7 3 9 7 10 11 4 9 8 6 2 5 6 5 23 30 20 22 24 24 26 28 28 25 23 22 22 25 28 32 35 38 40 41 43 44 43 42 40 42 44 44 43 43 45
17 16 4 7 6 9 8 9 10 6 6 9 5 4 7 6 13 6 17 29 25 26 26 23 24 27 27 25 24 24 26 28 31 33 33 33 34 36 38 41 46 50 51 49 47 50 50 50 52
17 10 5 4 11 11 10 6 6 4 8 11 6 3 4 11 3 9 18 23 27 27 26 22 21 24 25 25 24 26 28 28 29 29 31 33 35 37 40 42 46 49 55 60 60 48 56 57 61
20 7 4 5 10 10 9 12 16 9 7 8 9 5 6 11 16 12 13 21 26 27 25 23 23 25 24 24 25 25 26 27 29 31 33 36 39 42 45 48 51 53 56 60 67 65 53 60 62
8 4 4 8 9 10 12 11 14 9 10 6 6 4 8 13 22 19 18 20 23 23 22 22 23 24 23 24 25 24 24 27 31 34 37 41 45 48 50 53 57 59 61 62 66 72 73 59 65
12 6 6 6 9 8 7 2 7 6 6 12 6 8 8 16 23 21 22 23 24 26 25 23 23 24 22 23 23 22 24 29 33 38 43 48 52 55 55 57 60 61 63 65 67 69 71 77 58
7 6 2 9 6 10 2 2 4 8 11 10 12 9 10 13 27 27 27 27 29 29 27 25 23 22 21 21 20 22 27 32 37 43 49 52 48 43 42 42 41 38 44 55 62 66 68 69 76
9 6 6 9 9 9 3 3 5 7 11 12 13 21 17 9 29 32 35 36 37 36 31 27 25 22 21 19 20 25 30 35 42 47 48 43 40 40 35 30 27 27 29 34 37 41 60 63 78
8 7 18 9 6 6 3 3 6 6 11 17 30 38 33 25 30 37 40 41 39 38 31 28 27 24 20 18 23 27 32 39 44 45 40 37 36 34 26 25 24 24 27 29 34 35 45 60 62
12 11 9 8 13 7 3 8 9 4 15 38 33 32 34 36 38 41 42 40 35 31 33 30 29 24 20 22 25 30 36 42 44 41 36 35 32 27 23 25 28 28 27 32 22 24 29 39 49
5 19 14 6 4 5 5 7 11 27 50 35 24 25 27 36 40 41 41 41 38 37 35 34 31 26 23 24 28 33 39 44 41 38 35 29 19 17 18 22 25 25 23 27 18 18 20 24 36
5 7 13 21 19 18 23 22 19 49 65 54 52 45 36 33 39 40 40 42 39 41 38 36 34 28 26 27 31 35 41 40 38 37 34 23 19 18 19 20 18 19 23 17 11 12 10 21 31
3 9 23 22 26 14 11 8 0 24 17 11 18 16 33 48 47 41 47 48 49 43 40 37 34 30 27 29 32 37 38 36 36 37 24 20 22 18 18 12 15 14 18 5 4 7 9 29 36
1 9 14 12 8 11 6 14 20 43 36 32 16 21 22 30 34 48 46 47 49 44 38 35 34 30 28 29 32 36 33 32 33 29 14 15 17 17 17 12 10 13 4 6 3 16 20 33 41
4 7 7 2 9 3 5 19 15 16 17 24 23 31 39 39 34 32 43 49 49 45 39 36 34 29 26 27 31 31 27 26 28 17 12 18 19 14 13 15 6 10 14 8 9 24 32 40 64
6 6 9 14 12 5 6 15 13 9 21 46 58 64 54 50 47 38 41 49 49 44 40 39 32 27 26 26 28 23 19 19 19 14 13 17 14 9 5 9 18 19 8 16 26 31 40 59 64
11 8 10 10 3 2 6 32 33 62 50 61 61 68 66 57 57 46 45 48 49 45 42 38 31 27 24 23 22 15 15 17 14 13 12 7 2 5 12 25 30 15 15 35 33 41 46 58 55
9 7 5 5 3 2 13 28 37 41 42 53 52 55 39 30 19 32 44 49 49 51 49 40 31 26 23 20 16 11 13 15 11 10 3 5 10 15 28 38 25 22 38 32 33 41 51 60 53
4 4 10 9 3 3 13 33 40 34 31 37 35 34 28 14 13 29 46 53 55 52 48 39 32 25 20 17 13 9 12 7 6 6 7 12 14 27 39 33 18 26 35 30 40 47 60 58 55
6 9 4 10 8 4 14 18 14 10 9 27 30 18 12 12 16 34 53 57 57 53 45 36 29 23 18 14 12 9 11 0 8 10 13 18 24 41 41 25 22 36 34 39 47 46 53 58 47
4 12 10 5 5 6 7 12 13 14 22 11 27 20 13 10 13 33 54 60 58 49 40 32 28 22 17 14 11 9 4 7 15 16 19 24 32 43 33 23 24 40 34 41 42 53 54 43 48
10 6 10 4 5 4 4 4 16 6 17 11 10 2 9 6 9 29 53 57 52 45 36 30 27 22 15 15 12 9 7 16 21 22 23 28 37 40 26 22 23 32 38 48 49 55 49 48 45
15 12 14 9 5 4 9 10 11 8 7 7 6 6 5 6 9 24 48 53 49 42 35 30 27 21 16 17 14 12 13 20 23 22 23 29 35 32 27 20 29 35 29 34 45 51 44 41 43
8 12 4 7 4 11 5 6 20 16 15 10 18 36 12 9 12 26 49 56 49 42 35 30 27 20 16 19 17 15 17 23 24 23 19 24 30 28 21 23 30 35 35 35 41 42 37 40 44
13 14 10 13 8 6 6 10 13 10 14 15 16 22 13 10 13 24 42 51 46 38 32 29 25 20 18 20 21 20 19 25 25 24 19 21 30 26 23 27 31 28 31 29 38 33 33 38 38
12 10 12 9 5 7 7 13 24 4 12 19 25 16 11 6 10 20 35 44 41 36 30 29 24 20 20 21 23 25 22 26 27 25 22 19 19 26 27 29 28 30 31 31 35 29 31 42 41
8 11 6 4 4 7 6 9 12 20 28 27 34 46 28 10 7 13 28 35 35 31 29 29 25 21 20 22 23 26 26 27 32 31 26 23 20 23 26 30 31 30 34 35 36 35 29 40 53
7 6 3 8 9 9 6 9 11 14 17 22 31 56 55 22 11 5 17 25 28 29 32 30 28 25 23 23 26 28 32 31 35 36 32 28 26 25 31 35 29 30 36 33 34 34 35 34 47
1 11 12 8 9 5 2 7 8 13 16 33 41 52 63 46 27 11 7 16 24 27 30 31 30 29 25 23 26 30 32 38 38 38 36 31 31 32 30 37 40 35 40 39 38 40 43 43 48
Wind_Direction_500mb
198 200 202 161 55 63 263 259 265 256 237 211 189 205 191 119 167 204 169 170 169 181 191 204 216 214 219 228 233 239 249 257 264 270 273 273 269 264 263 258 250 249 248 247 245 244 238 226 215
185 182 187 105 100 92 261 258 237 233 220 157 141 103 41 241 194 160 157 174 174 186 196 208 214 216 225 234 239 245 255 265 270 272 273 272 270 267 264 262 258 249 247 248 246 244 238 229 221
167 172 159 110 137 192 217 222 230 281 203 221 195 193 182 220 220 193 191 189 194 195 204 215 213 219 228 233 242 255 264 270 274 275 274 273 271 269 267 264 260 255 245 241 247 243 241 234 226
161 143 63 122 223 250 213 254 178 265 237 222 199 238 235 208 213 205 198 201 201 204 210 216 215 220 229 243 256 265 272 275 277 275 275 276 274 271 268 262 257 252 250 242 237 244 242 237 232
164 130 90 273 263 266 248 264 201 203 274 241 191 259 234 214 222 210 218 210 209 212 215 220 225 231 243 256 266 271 276 279 280 282 283 280 279 276 271 268 264 259 252 248 244 238 241 238 235
124 123 96 244 258 268 280 258 174 209 250 256 204 227 241 217 215 217 215 217 212 225 228 228 234 241 250 260 266 273 278 281 284 286 287 287 285 282 279 274 268 263 259 254 249 243 237 238 233
131 106 223 232 262 280 239 194 203 206 249 256 209 189 256 218 202 206 207 210 225 229 237 238 239 246 252 260 271 280 283 287 290 293 292 292 290 287 283 277 273 267 263 258 254 250 242 236 239
155 107 181 246 232 264 210 290 263 214 244 255 215 236 267 257 202 198 209 217 228 232 234 240 249 256 265 273 282 286 290 294 297 297 299 297 296 297 292 283 278 275 270 264 260 253 246 238 235
162 82 222 253 169 255 347 26 246 268 261 238 230 248 257 261 206 207 214 219 225 227 229 241 251 260 268 275 286 296 300 301 301 303 303 305 307 302 296 302 300 283 280 278 270 266 249 239 228
130 171 212 215 218 242 307 247 287 303 275 261 255 252 252 242 223 219 223 230 232 233 237 244 251 258 267 281 295 299 302 303 305 305 305 307 304 305 309 321 324 312 306 291 271 275 264 243 229
175 216 210 255 238 254 238 271 250 219 264 252 253 281 256 239 228 227 231 236 245 244 245 247 251 253 266 288 298 303 304 306 307 305 307 302 302 311 322 311 309 306 308 307 281 283 276 247 232
180 246 235 275 277 280 242 274 278 233 254 270 285 276 261 236 234 238 241 242 238 239 245 247 248 253 268 287 297 303 305 308 307 305 302 295 300 296 288 296 305 297 300 305 275 278 284 234 210
221 271 257 261 268 268 270 258 259 270 276 277 270 259 255 247 250 253 255 245 241 239 242 246 247 250 269 287 297 302 308 309 306 306 298 302 289 277 283 300 302 297 300 288 255 270 261 189 175
219 253 276 287 276 262 227 248 267 270 269 281 278 274 255 254 255 255 249 241 237 238 241 242 241 248 271 287 297 304 308 309 308 306 307 294 297 275 275 287 309 298 306 230 240 269 165 153 162
157 317 324 258 258 231 207 277 229 266 269 272 269 269 258 261 253 254 251 246 239 241 242 237 234 249 272 285 297 304 308 309 310 309 311 314 299 294 295 278 296 307 164 152 216 156 139 148 154
77 57 347 297 141 230 147 268 276 248 269 265 278 286 271 258 257 263 252 238 233 235 234 230 233 252 270 284 296 304 309 311 312 325 322 300 297 276 279 274 256 159 142 164 165 144 147 146 157
6 213 207 311 187 142 150 281 276 267 289 287 284 285 279 261 253 257 252 231 229 231 226 226 235 253 268 283 296 304 314 314 321 343 314 303 299 286 263 167 145 138 155 185 144 150 157 149 155
184 211 238 238 229 178 248 266 271 282 290 283 287 289 286 276 266 256 243 222 221 220 219 221 236 250 265 281 294 303 317 320 338 343 321 317 325 136 156 141 147 125 121 144 148 157 148 159 164
130 174 241 277 10 312 251 273 280 283 275 278 283 290 280 284 274 226 222 214 211 210 214 221 238 251 261 281 283 295 319 331 2 345 9 105 111 138 142 141 127 149 150 148 160 176 173 153 156
304 7 290 290 356 193 303 283 284 277 260 266 274 276 290 274 237 214 207 205 206 209 211 220 234 244 257 271 266 281 315 322 48 45 97 119 134 142 143 138 119 159 154 162 165 170 165 158 161
217 203 219 232 330 258 330 286 318 296 284 284 272 265 260 271 236 209 199 200 200 204 212 222 232 236 251 255 249 265 304 204 109 100 115 127 139 146 145 139 136 157 159 164 172 173 177 167 161
243 201 173 204 65 238 45 287 306 294 304 274 293 239 236 270 221 205 198 194 198 201 209 221 228 231 241 236 231 241 274 145 127 115 124 128 142 152 150 149 150 177 161 176 170 170 176 188 179
217 116 138 117 124 6 317 64 271 318 289 298 359 174 201 249 226 204 199 196 194 201 212 221 223 229 233 225 217 226 183 155 144 129 135 138 149 159 160 166 161 162 159 175 184 183 195 192 187
146 78 46 54 73 338 239 146 289 247 250 312 344 22 203 218 213 199 198 194 195 200 211 221 222 227 227 219 208 210 178 169 162 153 149 164 169 177 179 181 177 179 173 180 184 195 200 204 206
96 92 336 346 10 226 360 94 247 275 284 275 296 296 281 217 205 197 195 195 199 205 213 219 223 230 228 217 205 199 185 177 172 174 172 178 184 188 195 181 176 184 182 187 195 200 213 205 193
178 155 164 212 196 244 56 228 248 216 300 296 321 332 301 219 207 207 202 203 206 211 220 222 226 236 232 215 206 200 195 189 183 189 192 186 179 184 174 169 169 168 183 196 210 217 213 201 197
177 199 158 97 26 60 226 279 304 88 31 10 352 337 340 274 239 220 208 208 213 219 227 224 228 239 237 219 212 205 204 200 195 192 193 185 181 179 179 183 183 188 195 200 205 200 210 205 194
147 173 94 8 201 239 272 276 243 359 350 352 5 4 352 323 275 229 210 212 218 227 230 225 230 240 244 232 222 214 212 206 203 202 202 202 199 192 188 195 202 203 205 203 207 211 202 208 208
148 182 146 147 172 182 161 250 356 14 2 0 5 6 5 352 348 267 216 218 224 229 225 232 238 245 248 244 230 222 218 218 211 210 214 218 218 215 202 201 208 213 204 201 206 215 210 211 213
258 203 170 161 216 238 188 254 18 42 24 21 17 15 29 36 22 358 276 251 246 239 237 243 248 251 255 254 246 234 228 225 224 220 217 217 221 224 229 211 209 217 214 211 209 214 219 222 214
Wind_Speed_850mb
13 12 8 3 7 9 7 11 5 4 3 5 4 7 8 5 9 8 12 27 23 33 27 24 24 28 28 25 22 22 21 22 24 26 28 30 32 33 36 37 36 35 37 37 36 36 36 36 38
15 13 9 5 7 3 9 7 10 11 4 9 8 6 2 5 6 5 23 30 20 22 24 24 26 28 28 25 23 22 22 25 28 32 35 38 40 41 43 44 43 42 40 42 44 44 43 43 45
17 16 4 7 6 9 8 9 10 6 6 9 5 4 7 6 13 6 17 29 25 26 26 23 24 27 27 25 24 24 26 28 31 33 33 33 34 36 38 41 46 50 51 49 47 50 50 50 52
17 10 5 4 11 11 10 6 6 4 8 11 6 3 4 11 3 9 18 23 27 27 26 22 21 24 25 25 24 26 28 28 29 29 31 33 35 37 40 42 46 49 55 60 60 48 56 57 61
20 7 4 5 10 10 9 12 16 9 7 8 9 5 6 11 16 12 13 21 26 27 25 23 23 25 24 24 25 25 26 27 29 31 33 36 39 42 45 48 51 53 56 60 67 65 53 60 62
8 4 4 8 9 10 12 11 14 9 10 6 6 4 8 13 22 19 18 20 23 23 22 22 23 24 23 24 25 24 24 27 31 34 37 41 45 48 50 53 57 59 61 62 66 72 73 59 65
12 6 6 6 9 8 7 2 7 6 6 12 6 8 8 16 23 21 22 23 24 26 25 23 23 24 22 23 23 22 24 29 33 38 43 48 52 55 55 57 60 61 63 65 67 69 71 77 58
7 6 2 9 6 10 2 2 4 8 11 10 12 9 10 13 27 27 27 27 29 29 27 25 23 22 21 21 20 22 27 32 37 43 49 52 48 43 42 42 41 38 44 55 62 66 68 69 76
9 6 6 9 9 9 3 3 5 7 11 12 13 21 17 9 29 32 35 36 37 36 31 27 25 22 21 19 20 25 30 35 42 47 48 43 40 40 35 30 27 27 29 34 37 41 60 63 78
8 7 18 9 6 6 3 3 6 6 11 17 30 38 33 25 30 37 40 41 39 38 31 28 27 24 20 18 23 27 32 39 44 45 40 37 36 34 26 25 24 24 27 29 34 35 45 60 62
12 11 9 8 13 7 3 8 9 4 15 38 33 32 34 36 38 41 42 40 35 31 33 30 29 24 20 22 25 30 36 42 44 41 36 35 32 27 23 25 28 28 27 32 22 24 29 39 49
5 19 14 6 4 5 5 7 11 27 50 35 24 25 27 36 40 41 41 41 38 37 35 34 31 26 23 24 28 33 39 44 41 38 35 29 19 17 18 22 25 25 23 27 18 18 20 24 36
5 7 13 21 19 18 23 22 19 49 65 54 52 45 36 33 39 40 40 42 39 41 38 36 34 28 26 27 31 35 41 40 38 37 34 23 19 18 19 20 18 19 23 17 11 12 10 21 31
3 9 23 22 26 14 11 8 0 24 17 11 18 16 33 48 47 41 47 48 49 43 40 37 34 30 27 29 32 37 38 36 36 37 24 20 22 18 18 12 15 14 18 5 4 7 9 29 36
1 9 14 12 8 11 6 14 20 43 36 32 16 21 22 30 34 48 46 47 49 44 38 35 34 30 28 29 32 36 33 32 33 29 14 15 17 17 17 12 10 13 4 6 3 16 20 33 41
4 7 7 2 9 3 5 19 15 16 17 24 23 31 39 39 34 32 43 49 49 45 39 36 34 29 26 27 31 31 27 26 28 17 12 18 19 14 13 15 6 10 14 8 9 24 32 40 64
6 6 9 14 12 5 6 15 13 9 21 46 58 64 54 50 47 38 41 49 49 44 40 39 32 27 26 26 28 23 19 19 19 14 13 17 14 9 5 9 18 19 8 16 26 31 40 59 64
11 8 10 10 3 2 6 32 33 62 50 61 61 68 66 57 57 46 45 48 49 45 42 38 31 27 24 23 22 15 15 17 14 13 12 7 2 5 12 25 30 15 15 35 33 41 46 58 55
9 7 5 5 3 2 13 28 37 41 42 53 52 55 39 30 19 32 44 49 49 51 49 40 31 26 23 20 16 11 13 15 11 10 3 5 10 15 28 38 25 22 38 32 33 41 51 60 53
4 4 10 9 3 3 13 33 40 34 31 37 35 34 28 14 13 29 46 53 55 52 48 39 32 25 20 17 13 9 12 7 6 6 7 12 14 27 39 33 18 26 35 30 40 47 60 58 55
6 9 4 10 8 4 14 18 14 10 9 27 30 18 12 12 16 34 53 57 57 53 45 36 29 23 18 14 12 9 11 0 8 10 13 18 24 41 41 25 22 36 34 39 47 46 53 58 47
4 12 10 5 5 6 7 12 13 14 22 11 27 20 13 10 13 33 54 60 58 49 40 32 28 22 17 14 11 9 4 7 15 16 19 24 32 43 33 23 24 40 34 41 42 53 54 43 48
10 6 10 4 5 4 4 4 16 6 17 11 10 2 9 6 9 29 53 57 52 45 36 30 27 22 15 15 12 9 7 16 21 22 23 28 37 40 26 22 23 32 38 48 49 55 49 48 45
15 12 14 9 5 4 9 10 11 8 7 7 6 6 5 6 9 24 48 53 49 42 35 30 27 21 16 17 14 12 13 20 23 22 23 29 35 32 27 20 29 35 29 34 45 51 44 41 43
8 12 4 7 4 11 5 6 20 16 15 10 18 36 12 9 12 26 49 56 49 42 35 30 27 20 16 19 17 15 17 23 24 23 19 24 30 28 21 23 30 35 35 35 41 42 37 40 44
13 14 10 13 8 6 6 10 13 10 14 15 16 22 13 10 13 24 42 51 46 38 32 29 25 20 18 20 21 20 19 25 25 24 19 21 30 26 23 27 31 28 31 29 38 33 33 38 38
12 10 12 9 5 7 7 13 24 4 12 19 25 16 11 6 10 20 35 44 41 36 30 29 24 20 20 21 23 25 22 26 27 25 22 19 19 26 27 29 28 30 31 31 35 29 31 42 41
8 11 6 4 4 7 6 9 12 20 28 27 34 46 28 10 7 13 28 35 35 31 29 29 25 21 20 22 23 26 26 27 32 31 26 23 20 23 26 30 31 30 34 35 36 35 29 40 53
7 6 3 8 9 9 6 9 11 14 17 22 31 56 55 22 11 5 17 25 28 29 32 30 28 25 23 23 26 28 32 31 35 36 32 28 26 25 31 35 29 30 36 33 34 34 35 34 47
1 11 12 8 9 5 2 7 8 13 16 33 41 52 63 46 27 11 7 16 24 27 30 31 30 29 25 23 26 30 32 38 38 38 36 31 31 32 30 37 40 35 40 39 38 40 43 43 48
Wind_Direction_850mb
198 200 202 161 55 63 263 259 265 256 237 211 189 205 191 119 167 204 169 170 169 181 191 204 216 214 219 228 233 239 249 257 264 270 273 273 269 264 263 258 250 249 248 247 245 244 238 226 215
185 182 187 105 100 92 261 258 237 233 220 157 141 103 41 241 194 160 157 174 174 186 196 208 214 216 225 234 239 245 255 265 270 272 273 272 270 267 264 262 258 249 247 248 246 244 238 229 221
167 172 159 110 137 192 217 222 230 281 203 221 195 193 182 220 220 193 191 189 194 195 204 215 213 219 228 233 242 255 264 270 274 275 274 273 271 269 267 264 260 255 245 241 247 243 241 234 226
161 143 63 122 223 250 213 254 178 265 237 222 199 238 235 208 213 205 198 201 201 204 210 216 215 220 229 243 256 265 272 275 277 275 275 276 274 271 268 262 257 252 250 242 237 244 242 237 232
164 130 90 273 263 266 248 264 201 203 274 241 191 259 234 214 222 210 218 210 209 212 215 220 225 231 243 256 266 271 276 279 280 282 283 280 279 276 271 268 264 259 252 248 244 238 241 238 235
124 123 96 244 258 268 280 258 174 209 250 256 204 227 241 217 215 217 215 217 212 225 228 228 234 241 250 260 266 273 278 281 284 286 287 287 285 282 279 274 268 263 259 254 249 243 237 238 233
131 106 223 232 262 280 239 194 203 206 249 256 209 189 256 218 202 206 207 210 225 229 237 238 239 246 252 260 271 280 283 287 290 293 292 292 290 287 283 277 273 267 263 258 254 250 242 236 239
155 107 181 246 232 264 210 290 263 214 244 255 215 236 267 257 202 198 209 217 228 232 234 240 249 256 265 273 282 286 290 294 297 297 299 297 296 297 292 283 278 275 270 264 260 253 246 238 235
162 82 222 253 169 255 347 26 246 268 261 238 230 248 257 261 206 207 214 219 225 227 229 241 251 260 268 275 286 296 300 301 301 303 303 305 307 302 296 302 300 283 280 278 270 266 249 239 228
130 171 212 215 218 242 307 247 287 303 275 261 255 252 252 242 223 219 223 230 232 233 237 244 251 258 267 281 295 299 302 303 305 305 305 307 304 305 309 321 324 312 306 291 271 275 264 243 229
175 216 210 255 238 254 238 271 250 219 264 252 253 281 256 239 228 227 231 236 245 244 245 247 251 253 266 288 298 303 304 306 307 305 307 302 302 311 322 311 309 306 308 307 281 283 276 247 232
180 246 235 275 277 280 242 274 278 233 254 270 285 276 261 236 234 238 241 242 238 239 245 247 248 253 268 287 297 303 305 308 307 305 302 295 300 296 288 296 305 297 300 305 275 278 284 234 210
221 271 257 261 268 268 270 258 259 270 276 277 270 259 255 247 250 253 255 245 241 239 242 246 247 250 269 287 297 302 308 309 306 306 298 302 289 277 283 300 302 297 300 288 255 270 261 189 175
219 253 276 287 276 262 227 248 267 270 269 281 278 274 255 254 255 255 249 241 237 238 241 242 241 248 271 287 297 304 308 309 308 306 307 294 297 275 275 287 309 298 306 230 240 269 165 153 162
157 317 324 258 258 231 207 277 229 266 269 272 269 269 258 261 253 254 251 246 239 241 242 237 234 249 272 285 297 304 308 309 310 309 311 314 299 294 295 278 296 307 164 152 216 156 139 148 154
77 57 347 297 141 230 147 268 276 248 269 265 278 286 271 258 257 263 252 238 233 235 234 230 233 252 270 284 296 304 309 311 312 325 322 300 297 276 279 274 256 159 142 164 165 144 147 146 157
6 213 207 311 187 142 150 281 276 267 289 287 284 285 279 261 253 257 252 231 229 231 226 226 235 253 268 283 296 304 314 314 321 343 314 303 299 286 263 167 145 138 155 185 144 150 157 149 155
184 211 238 238 229 178 248 266 271 282 290 283 287 289 286 276 266 256 243 222 221 220 219 221 236 250 265 281 294 303 317 320 338 343 321 317 325 136 156 141 147 125 121 144 148 157 148 159 164
130 174 241 277 10 312 251 273 280 283 275 278 283 290 280 284 274 226 222 214 211 210 214 221 238 251 261 281 283 295 319 331 2 345 9 105 111 138 142 141 127 149 150 148 160 176 173 153 156
304 7 290 290 356 193 303 283 284 277 260 266 274 276 290 274 237 214 207 205 206 209 211 220 234 244 257 271 266 281 315 322 48 45 97 119 134 142 143 138 119 159 154 162 165 170 165 158 161
217 203 219 232 330 258 330 286 318 296 284 284 272 265 260 271 236 209 199 200 200 204 212 222 232 236 251 255 249 265 304 204 109 100 115 127 139 146 145 139 136 157 159 164 172 173 177 167 161
243 201 173 204 65 238 45 287 306 294 304 274 293 239 236 270 221 205 198 194 198 201 209 221 228 231 241 236 231 241 274 145 127 115 124 128 142 152 150 149 150 177 161 176 170 170 176 188 179
217 116 138 117 124 6 317 64 271 318 289 298 359 174 201 249 226 204 199 196 194 201 212 221 223 229 233 225 217 226 183 155 144 129 135 138 149 159 160 166 161 162 159 175 184 183 195 192 187
146 78 46 54 73 338 239 146 289 247 250 312 344 22 203 218 213 199 198 194 195 200 211 221 222 227 227 219 208 210 178 169 162 153 149 164 169 177 179 181 177 179 173 180 184 195 200 204 206
96 92 336 346 10 226 360 94 247 275 284 275 296 296 281 217 205 197 195 195 199 205 213 219 223 230 228 217 205 199 185 177 172 174 172 178 184 188 195 181 176 184 182 187 195 200 213 205 193
178 155 164 212 196 244 56 228 248 216 300 296 321 332 301 219 207 207 202 203 206 211 220 222 226 236 232 215 206 200 195 189 183 189 192 186 179 184 174 169 169 168 183 196 210 217 213 201 197
177 199 158 97 26 60 226 279 304 88 31 10 352 337 340 274 239 220 208 208 213 219 227 224 228 239 237 219 212 205 204 200 195 192 193 185 181 179 179 183 183 188 195 200 205 200 210 205 194
147 173 94 8 201 239 272 276 243 359 350 352 5 4 352 323 275 229 210 212 218 227 230 225 230 240 244 232 222 214 212 206 203 202 202 202 199 192 188 195 202 203 205 203 207 211 202 208 208
148 182 146 147 172 182 161 250 356 14 2 0 5 6 5 352 348 267 216 218 224 229 225 232 238 245 248 244 230 222 218 218 211 210 214 218 218 215 202 201 208 213 204 201 206 215 210 211 213
258 203 170 161 216 238 188 254 18 42 24 21 17 15 29 36 22 358 276 251 246 239 237 243 248 251 255 254 246 234 228 225 224 220 217 217 221 224 229 211 209 217 214 211 209 214 219 222 214